Tracking 35237 objects as of 6-Sep-2026
HD Live streaming from Space Station
objects crossing your sky now

METEOR 2-6 DEB

Track METEOR 2-6 DEB now!
10-day predictions


NORAD ID: 29201
Int'l Code: 1980-073G
Launch date: September 9, 1980
Source: Commonwealth of Independent States (former USSR) (CIS)
Launch site: PLESETSK MISSILE AND SPACE COMPLEX (PKMTR)

Note: This is SATELLITE DEBRIS
Your satellite tracking list
Your tracking list is empty




NASA's NSSDC Master Catalog

Two Line Element Set (TLE):
1 29201U 80073G   26137.10775862  .00016990  00000-0  17213-2 0  9998
2 29201  81.1900 269.4776 0005720 236.3010 123.7661 14.90829007657021
Source of the keplerian elements: AFSPC